Time,TemperatureF,DewpointF,PressureIn,WindDirection,WindDirectionDegrees,WindSpeedMPH,WindSpeedGustMPH,Humidity,HourlyPrecipIn,Conditions,Clouds,dailyrainin,SolarRadiationWatts/m^2,SoftwareType,DateUTC
2013-05-27 00:01:00,81.6,64.4,29.79,SE,142,10.0,20.0,56,0.00,,---,0.00,0.00,VWS V14.01,2013-05-27 05:01:00,
2013-05-27 00:06:00,81.5,64.3,29.79,SSE,148,7.0,14.0,56,0.00,,---,0.00,0.00,VWS V14.01,2013-05-27 05:06:00,
2013-05-27 00:11:00,81.4,64.2,29.78,SSE,157,8.0,19.0,56,0.00,,---,0.00,0.00,VWS V14.01,2013-05-27 05:11:00,
2013-05-27 00:16:00,81.3,64.1,29.78,SE,139,8.0,19.0,56,0.00,,---,0.00,0.00,VWS V14.01,2013-05-27 05:16:00,
2013-05-27 00:21:00,81.2,63.5,29.78,SE,134,9.0,19.0,55,0.00,,---,0.00,0.00,VWS V14.01,2013-05-27 05:21:00,
2013-05-27 00:26:00,81.1,63.9,29.78,SSE,150,7.0,19.0,56,0.00,,---,0.00,0.00,VWS V14.01,2013-05-27 05:26:00,
2013-05-27 00:31:00,81.0,63.3,29.78,SSE,148,9.0,19.0,55,0.00,,---,0.00,0.00,VWS V14.01,2013-05-27 05:31:00,
2013-05-27 00:36:00,80.9,63.8,29.78,SE,142,7.0,14.0,56,0.00,,---,0.00,0.00,VWS V14.01,2013-05-27 05:36:00,
2013-05-27 00:41:00,80.7,63.6,29.77,SE,139,9.0,14.0,56,0.00,,---,0.00,0.00,VWS V14.01,2013-05-27 05:41:00,
2013-05-27 00:46:00,80.6,64.0,29.77,ESE,115,11.0,15.0,57,0.00,,---,0.00,0.00,VWS V14.01,2013-05-27 05:46:00,
2013-05-27 00:51:00,80.5,63.9,29.77,SSE,149,6.0,17.0,57,0.00,,---,0.00,0.00,VWS V14.01,2013-05-27 05:51:00,
2013-05-27 00:56:00,80.4,63.8,29.77,SE,134,9.0,17.0,57,0.00,,---,0.00,0.00,VWS V14.01,2013-05-27 05:56:00,
2013-05-27 01:01:00,80.3,64.2,29.77,SSE,152,5.0,17.0,58,0.00,,---,0.00,0.00,VWS V14.01,2013-05-27 06:01:00,
2013-05-27 01:06:00,80.1,64.5,29.77,SE,136,9.0,17.0,59,0.00,,---,0.00,0.00,VWS V14.01,2013-05-27 06:06:00,
2013-05-27 01:11:00,79.9,64.3,29.77,SE,141,16.0,17.0,59,0.00,,---,0.00,0.00,VWS V14.01,2013-05-27 06:11:00,
2013-05-27 01:16:00,79.8,64.2,29.77,SSE,149,9.0,19.0,59,0.00,,---,0.00,0.00,VWS V14.01,2013-05-27 06:16:00,
2013-05-27 01:21:00,79.7,64.6,29.76,SE,136,11.0,19.0,60,0.00,,---,0.00,0.00,VWS V14.01,2013-05-27 06:21:00,
2013-05-27 01:26:00,79.6,64.5,29.76,SSE,148,12.0,19.0,60,0.00,,---,0.00,0.00,VWS V14.01,2013-05-27 06:26:00,
2013-05-27 01:31:00,79.5,64.4,29.76,SE,146,8.0,19.0,60,0.00,,---,0.00,0.00,VWS V14.01,2013-05-27 06:31:00,
2013-05-27 01:36:00,79.4,64.8,29.76,SSE,150,6.0,25.0,61,0.00,,---,0.00,0.00,VWS V14.01,2013-05-27 06:36:00,
2013-05-27 01:41:00,79.3,64.7,29.75,South,183,13.0,25.0,61,0.00,,---,0.00,0.00,VWS V14.01,2013-05-27 06:41:00,
2013-05-27 01:46:00,79.2,64.6,29.76,SSE,153,8.0,25.0,61,0.00,,---,0.00,0.00,VWS V14.01,2013-05-27 06:46:00,
2013-05-27 01:51:00,79.1,65.0,29.76,SSE,155,10.0,25.0,62,0.00,,---,0.00,0.00,VWS V14.01,2013-05-27 06:51:00,
2013-05-27 01:56:00,79.1,65.0,29.75,SE,140,12.0,25.0,62,0.00,,---,0.00,0.00,VWS V14.01,2013-05-27 06:56:00,
2013-05-27 02:01:00,79.0,64.9,29.75,SE,146,11.0,25.0,62,0.00,,---,0.00,0.00,VWS V14.01,2013-05-27 07:01:00,
2013-05-27 02:06:00,78.9,64.8,29.76,South,178,12.0,20.0,62,0.00,,---,0.00,0.00,VWS V14.01,2013-05-27 07:06:00,
2013-05-27 02:11:00,78.8,64.7,29.76,SSE,150,13.0,20.0,62,0.00,,---,0.00,0.00,VWS V14.01,2013-05-27 07:11:00,
2013-05-27 02:16:00,78.7,65.1,29.76,SSE,151,9.0,20.0,63,0.00,,---,0.00,0.00,VWS V14.01,2013-05-27 07:16:00,
2013-05-27 02:21:00,78.5,64.9,29.76,SE,132,6.0,20.0,63,0.00,,---,0.00,0.00,VWS V14.01,2013-05-27 07:21:00,
2013-05-27 02:26:00,78.3,64.7,29.76,SSE,157,5.0,20.0,63,0.00,,---,0.00,0.00,VWS V14.01,2013-05-27 07:26:00,
2013-05-27 02:31:00,78.1,64.9,29.75,SSE,148,13.0,20.0,64,0.00,,---,0.00,0.00,VWS V14.01,2013-05-27 07:31:00,
2013-05-27 02:36:00,78.0,65.3,29.75,SE,145,10.0,17.0,65,0.00,,---,0.00,0.00,VWS V14.01,2013-05-27 07:36:00,
2013-05-27 02:41:00,77.9,65.2,29.75,SSE,150,9.0,18.0,65,0.00,,---,0.00,0.00,VWS V14.01,2013-05-27 07:41:00,
2013-05-27 02:46:00,77.7,65.0,29.75,SE,142,6.0,18.0,65,0.00,,---,0.00,0.00,VWS V14.01,2013-05-27 07:46:00,
2013-05-27 02:51:00,77.6,65.3,29.75,SSE,150,13.0,18.0,66,0.00,,---,0.00,0.00,VWS V14.01,2013-05-27 07:51:00,
2013-05-27 02:55:00,77.5,65.3,29.75,SSE,157,11.0,18.0,66,0.00,,---,0.00,0.00,VWS V14.01,2013-05-27 07:55:00,
2013-05-27 03:00:00,77.4,65.2,29.75,SE,143,7.0,18.0,66,0.00,,---,0.00,0.00,VWS V14.01,2013-05-27 08:00:00,
2013-05-27 03:05:00,77.3,65.5,29.75,SSE,150,9.0,17.0,67,0.00,,---,0.00,0.00,VWS V14.01,2013-05-27 08:05:00,
2013-05-27 03:10:00,77.2,65.4,29.75,SSE,164,9.0,17.0,67,0.00,,---,0.00,0.00,VWS V14.01,2013-05-27 08:10:00,
2013-05-27 03:15:00,77.0,65.6,29.75,SSE,153,10.0,17.0,68,0.00,,---,0.00,0.00,VWS V14.01,2013-05-27 08:15:00,
2013-05-27 03:20:00,76.8,65.4,29.75,SSE,148,7.0,17.0,68,0.00,,---,0.00,0.00,VWS V14.01,2013-05-27 08:20:00,
2013-05-27 03:25:00,76.7,65.8,29.74,SSE,154,6.0,21.0,69,0.00,,---,0.00,0.00,VWS V14.01,2013-05-27 08:25:00,
2013-05-27 03:30:00,76.6,65.7,29.74,SSE,165,11.0,22.0,69,0.00,,---,0.00,0.00,VWS V14.01,2013-05-27 08:30:00,
2013-05-27 03:35:00,76.5,65.6,29.74,SSE,159,16.0,16.0,69,0.00,,---,0.00,0.00,VWS V14.01,2013-05-27 08:35:00,
2013-05-27 03:40:00,76.4,65.5,29.74,SSE,161,6.0,18.0,69,0.00,,---,0.00,0.00,VWS V14.01,2013-05-27 08:40:00,
2013-05-27 03:45:00,76.2,65.7,29.74,SSE,155,9.0,18.0,70,0.00,,---,0.00,0.00,VWS V14.01,2013-05-27 08:45:00,
2013-05-27 03:50:00,76.1,65.6,29.74,SE,142,11.0,18.0,70,0.00,,---,0.00,0.00,VWS V14.01,2013-05-27 08:50:00,
2013-05-27 03:55:00,76.1,65.6,29.74,SSE,162,4.0,18.0,70,0.00,,---,0.00,0.00,VWS V14.01,2013-05-27 08:55:00,
2013-05-27 04:00:00,76.0,65.1,29.73,South,170,9.0,18.0,69,0.00,,---,0.00,0.00,VWS V14.01,2013-05-27 09:00:00,
2013-05-27 04:05:00,75.8,65.3,29.73,SSE,163,6.0,18.0,70,0.00,,---,0.00,0.00,VWS V14.01,2013-05-27 09:05:00,
2013-05-27 04:10:00,75.8,64.9,29.74,SSE,156,6.0,18.0,69,0.00,,---,0.00,0.00,VWS V14.01,2013-05-27 09:10:00,
2013-05-27 04:15:00,75.8,64.9,29.74,SSE,153,10.0,18.0,69,0.00,,---,0.00,0.00,VWS V14.01,2013-05-27 09:15:00,
2013-05-27 04:20:00,75.7,64.8,29.74,SSE,151,6.0,19.0,69,0.00,,---,0.00,0.00,VWS V14.01,2013-05-27 09:20:00,
2013-05-27 04:25:00,75.6,64.7,29.74,SSE,165,6.0,19.0,69,0.00,,---,0.00,0.00,VWS V14.01,2013-05-27 09:25:00,
2013-05-27 04:30:00,75.4,64.9,29.74,SE,139,10.0,19.0,70,0.00,,---,0.00,0.00,VWS V14.01,2013-05-27 09:30:00,
2013-05-27 04:35:00,75.3,64.8,29.74,SSE,155,5.0,13.0,70,0.00,,---,0.00,0.00,VWS V14.01,2013-05-27 09:35:00,
2013-05-27 04:40:00,75.1,64.7,29.74,SE,146,9.0,14.0,70,0.00,,---,0.00,0.00,VWS V14.01,2013-05-27 09:40:00,
2013-05-27 04:45:00,74.9,64.5,29.74,SSE,155,5.0,14.0,70,0.00,,---,0.00,0.00,VWS V14.01,2013-05-27 09:45:00,
2013-05-27 04:50:00,74.8,64.4,29.74,SSE,148,7.0,14.0,70,0.00,,---,0.00,0.00,VWS V14.01,2013-05-27 09:50:00,
2013-05-27 04:55:00,74.6,64.2,29.74,SSE,157,6.0,14.0,70,0.00,,---,0.00,0.00,VWS V14.01,2013-05-27 09:55:00,
2013-05-27 05:00:00,74.4,64.0,29.75,SSE,159,6.0,14.0,70,0.00,,---,0.00,0.00,VWS V14.01,2013-05-27 10:00:00,
2013-05-27 05:05:00,74.2,64.2,29.75,SSE,164,8.0,12.0,71,0.00,,---,0.00,0.00,VWS V14.01,2013-05-27 10:05:00,
2013-05-27 05:10:00,74.1,64.1,29.75,SSE,163,4.0,12.0,71,0.00,,---,0.00,0.00,VWS V14.01,2013-05-27 10:10:00,
2013-05-27 05:15:00,73.9,63.9,29.75,SSE,155,5.0,12.0,71,0.00,,---,0.00,0.00,VWS V14.01,2013-05-27 10:15:00,
2013-05-27 05:20:00,73.8,63.8,29.75,SSE,150,2.0,12.0,71,0.00,,---,0.00,0.00,VWS V14.01,2013-05-27 10:20:00,
2013-05-27 05:25:00,73.6,63.6,29.75,SSE,152,3.0,12.0,71,0.00,,---,0.00,0.00,VWS V14.01,2013-05-27 10:25:00,
2013-05-27 05:30:00,73.5,63.9,29.74,SSE,150,6.0,12.0,72,0.00,,---,0.00,0.00,VWS V14.01,2013-05-27 10:30:00,
2013-05-27 05:35:00,73.4,63.8,29.74,SSE,161,6.0,12.0,72,0.00,,---,0.00,0.00,VWS V14.01,2013-05-27 10:35:00,
2013-05-27 05:40:00,73.2,63.6,29.74,SSE,157,5.0,12.0,72,0.00,,---,0.00,0.00,VWS V14.01,2013-05-27 10:40:00,
2013-05-27 05:45:00,73.1,63.5,29.74,SE,142,3.0,12.0,72,0.00,,---,0.00,0.00,VWS V14.01,2013-05-27 10:45:00,
2013-05-27 05:50:00,73.0,63.8,29.74,SE,144,6.0,12.0,73,0.00,,---,0.00,0.00,VWS V14.01,2013-05-27 10:50:00,
2013-05-27 05:55:00,72.8,63.7,29.74,SSE,150,6.0,13.0,73,0.00,,---,0.00,0.00,VWS V14.01,2013-05-27 10:55:00,
2013-05-27 06:00:00,72.8,63.7,29.74,SSE,159,4.0,13.0,73,0.00,,---,0.00,0.00,VWS V14.01,2013-05-27 11:00:00,
2013-05-27 06:05:00,72.7,63.9,29.74,SE,145,5.0,13.0,74,0.00,,---,0.00,0.00,VWS V14.01,2013-05-27 11:05:00,
2013-05-27 06:10:00,72.6,63.8,29.74,SSE,155,11.0,13.0,74,0.00,,---,0.00,0.00,VWS V14.01,2013-05-27 11:10:00,
2013-05-27 06:15:00,72.6,63.8,29.74,SE,146,4.0,13.0,74,0.00,,---,0.00,0.00,VWS V14.01,2013-05-27 11:15:00,
2013-05-27 06:20:00,72.5,63.8,29.74,SSE,151,7.0,14.0,74,0.00,,---,0.00,0.00,VWS V14.01,2013-05-27 11:20:00,
2013-05-27 06:25:00,72.4,64.0,29.74,SE,140,7.0,14.0,75,0.00,,---,0.00,0.00,VWS V14.01,2013-05-27 11:25:00,
2013-05-27 06:30:00,72.4,64.0,29.74,SE,139,8.0,14.0,75,0.00,,---,0.00,0.00,VWS V14.01,2013-05-27 11:30:00,
2013-05-27 06:35:00,72.3,63.9,29.74,SSE,149,12.0,12.0,75,0.00,,---,0.00,5.00,VWS V14.01,2013-05-27 11:35:00,
2013-05-27 06:40:00,72.2,63.8,29.74,SE,144,14.0,15.0,75,0.00,,---,0.00,7.00,VWS V14.01,2013-05-27 11:40:00,
2013-05-27 06:45:00,72.2,64.2,29.74,SSE,167,10.0,15.0,76,0.00,,---,0.00,16.00,VWS V14.01,2013-05-27 11:45:00,
2013-05-27 06:50:00,72.2,64.2,29.75,SSE,149,7.0,15.0,76,0.00,,---,0.00,28.00,VWS V14.01,2013-05-27 11:50:00,
2013-05-27 06:55:00,72.2,64.2,29.75,SSE,159,11.0,15.0,76,0.00,,---,0.00,42.00,VWS V14.01,2013-05-27 11:55:00,
2013-05-27 07:00:00,72.3,64.3,29.75,SSE,150,8.0,15.0,76,0.00,,---,0.00,49.00,VWS V14.01,2013-05-27 12:00:00,
2013-05-27 07:05:00,72.4,64.4,29.75,SE,143,12.0,13.0,76,0.00,,---,0.00,53.00,VWS V14.01,2013-05-27 12:05:00,
2013-05-27 07:10:00,72.5,64.5,29.75,South,173,6.0,15.0,76,0.00,,---,0.00,62.00,VWS V14.01,2013-05-27 12:10:00,
2013-05-27 07:15:00,72.6,64.6,29.75,SSE,149,12.0,15.0,76,0.00,,---,0.00,74.00,VWS V14.01,2013-05-27 12:15:00,
2013-05-27 07:20:00,72.7,64.7,29.75,SSE,158,4.0,15.0,76,0.00,,---,0.00,95.00,VWS V14.01,2013-05-27 12:20:00,
2013-05-27 07:25:00,72.9,64.9,29.76,SSE,159,7.0,17.0,76,0.00,,---,0.00,113.00,VWS V14.01,2013-05-27 12:25:00,
2013-05-27 07:30:00,73.0,65.0,29.76,SSE,167,4.0,17.0,76,0.00,,---,0.00,72.00,VWS V14.01,2013-05-27 12:30:00,
2013-05-27 07:35:00,73.1,65.1,29.76,SSE,151,6.0,12.0,76,0.00,,---,0.00,137.00,VWS V14.01,2013-05-27 12:35:00,
2013-05-27 07:40:00,73.3,65.3,29.76,South,187,7.0,12.0,76,0.00,,---,0.00,113.00,VWS V14.01,2013-05-27 12:40:00,
2013-05-27 07:45:00,73.4,65.4,29.76,SSE,157,9.0,13.0,76,0.00,,---,0.00,84.00,VWS V14.01,2013-05-27 12:45:00,
2013-05-27 07:50:00,73.4,65.4,29.76,SSE,156,8.0,13.0,76,0.00,,---,0.00,111.00,VWS V14.01,2013-05-27 12:50:00,
2013-05-27 07:55:00,73.5,65.5,29.76,South,173,6.0,13.0,76,0.00,,---,0.00,186.00,VWS V14.01,2013-05-27 12:55:00,
2013-05-27 08:00:00,73.8,65.4,29.76,SSE,165,7.0,13.0,75,0.00,,---,0.00,211.00,VWS V14.01,2013-05-27 13:00:00,
2013-05-27 08:05:00,74.3,65.9,29.76,SSE,159,8.0,15.0,75,0.00,,---,0.00,232.00,VWS V14.01,2013-05-27 13:05:00,
2013-05-27 08:10:00,74.6,65.8,29.76,SSE,155,6.0,15.0,74,0.00,,---,0.00,255.00,VWS V14.01,2013-05-27 13:10:00,
2013-05-27 08:15:00,75.0,65.8,29.76,SSE,155,7.0,16.0,73,0.00,,---,0.00,269.00,VWS V14.01,2013-05-27 13:15:00,
2013-05-27 08:20:00,75.4,66.2,29.76,SSE,161,7.0,16.0,73,0.00,,---,0.00,279.00,VWS V14.01,2013-05-27 13:20:00,
2013-05-27 08:25:00,75.7,66.0,29.76,SSE,159,6.0,20.0,72,0.00,,---,0.00,301.00,VWS V14.01,2013-05-27 13:25:00,
2013-05-27 08:30:00,76.1,66.4,29.76,SSE,152,13.0,20.0,72,0.00,,---,0.00,316.00,VWS V14.01,2013-05-27 13:30:00,
2013-05-27 08:35:00,76.5,66.4,29.76,South,169,5.0,14.0,71,0.00,,---,0.00,334.00,VWS V14.01,2013-05-27 13:35:00,
2013-05-27 08:40:00,76.7,66.6,29.76,South,172,9.0,18.0,71,0.00,,---,0.00,346.00,VWS V14.01,2013-05-27 13:40:00,
2013-05-27 08:45:00,77.1,66.6,29.76,SSE,163,12.0,18.0,70,0.00,,---,0.00,388.00,VWS V14.01,2013-05-27 13:45:00,
2013-05-27 08:50:00,77.3,66.8,29.76,South,175,12.0,19.0,70,0.00,,---,0.00,418.00,VWS V14.01,2013-05-27 13:50:00,
2013-05-27 08:55:00,77.5,66.9,29.76,SSE,154,8.0,19.0,70,0.00,,---,0.00,462.00,VWS V14.01,2013-05-27 13:55:00,
2013-05-27 09:00:00,77.6,67.1,29.76,SSE,167,8.0,19.0,70,0.00,,---,0.00,274.00,VWS V14.01,2013-05-27 14:00:00,
2013-05-27 09:05:00,77.6,66.6,29.76,SSE,166,5.0,13.0,69,0.00,,---,0.00,237.00,VWS V14.01,2013-05-27 14:05:00,
2013-05-27 09:10:00,77.9,67.3,29.76,South,178,9.0,13.0,70,0.00,,---,0.00,234.00,VWS V14.01,2013-05-27 14:10:00,
2013-05-27 09:15:00,78.2,67.2,29.76,SSE,162,13.0,16.0,69,0.00,,---,0.00,408.00,VWS V14.01,2013-05-27 14:15:00,
2013-05-27 09:20:00,78.6,67.6,29.76,SSE,153,18.0,18.0,69,0.00,,---,0.00,555.00,VWS V14.01,2013-05-27 14:20:00,
2013-05-27 09:25:00,79.1,67.6,29.76,SSE,161,10.0,19.0,68,0.00,,---,0.00,533.00,VWS V14.01,2013-05-27 14:25:00,
2013-05-27 09:30:00,79.6,67.7,29.76,South,170,8.0,19.0,67,0.00,,---,0.00,220.00,VWS V14.01,2013-05-27 14:30:00,
2013-05-27 09:35:00,80.0,67.6,29.76,South,174,8.0,17.0,66,0.00,,---,0.00,673.00,VWS V14.01,2013-05-27 14:35:00,
2013-05-27 09:40:00,80.7,67.8,29.76,SSE,153,9.0,18.0,65,0.00,,---,0.00,675.00,VWS V14.01,2013-05-27 14:40:00,
2013-05-27 09:45:00,80.7,67.4,29.76,SSE,157,6.0,18.0,64,0.00,,---,0.00,680.00,VWS V14.01,2013-05-27 14:45:00,
2013-05-27 09:50:00,81.0,67.7,29.76,South,188,13.0,18.0,64,0.00,,---,0.00,647.00,VWS V14.01,2013-05-27 14:50:00,
2013-05-27 09:55:00,81.1,67.8,29.75,SSW,207,11.0,18.0,64,0.00,,---,0.00,613.00,VWS V14.01,2013-05-27 14:55:00,
2013-05-27 10:00:00,81.4,67.6,29.75,South,170,8.0,18.0,63,0.00,,---,0.00,626.00,VWS V14.01,2013-05-27 15:00:00,
2013-05-27 10:05:00,81.1,67.8,29.75,SSE,156,8.0,21.0,64,0.00,,---,0.00,657.00,VWS V14.01,2013-05-27 15:05:00,
2013-05-27 10:10:00,81.7,67.9,29.75,SSE,159,6.0,21.0,63,0.00,,---,0.00,652.00,VWS V14.01,2013-05-27 15:10:00,
2013-05-27 10:15:00,82.3,68.0,29.75,South,169,8.0,21.0,62,0.00,,---,0.00,664.00,VWS V14.01,2013-05-27 15:15:00,
2013-05-27 10:20:00,82.5,67.7,29.74,SSE,167,6.0,22.0,61,0.00,,---,0.00,677.00,VWS V14.01,2013-05-27 15:20:00,
2013-05-27 10:25:00,82.9,67.6,29.74,South,182,7.0,22.0,60,0.00,,---,0.00,694.00,VWS V14.01,2013-05-27 15:25:00,
2013-05-27 10:30:00,83.2,67.9,29.73,South,188,16.0,22.0,60,0.00,,---,0.00,696.00,VWS V14.01,2013-05-27 15:30:00,
2013-05-27 10:35:00,83.4,67.6,29.73,SSE,166,7.0,20.0,59,0.00,,---,0.00,714.00,VWS V14.01,2013-05-27 15:35:00,
2013-05-27 10:40:00,83.4,67.6,29.73,SSE,150,15.0,20.0,59,0.00,,---,0.00,700.00,VWS V14.01,2013-05-27 15:40:00,
2013-05-27 10:45:00,83.9,68.1,29.73,SSE,155,4.0,20.0,59,0.00,,---,0.00,744.00,VWS V14.01,2013-05-27 15:45:00,
2013-05-27 10:50:00,84.7,67.8,29.72,SSW,202,6.0,20.0,57,0.00,,---,0.00,747.00,VWS V14.01,2013-05-27 15:50:00,
2013-05-27 10:55:00,84.9,68.0,29.72,SE,144,5.0,20.0,57,0.00,,---,0.00,775.00,VWS V14.01,2013-05-27 15:55:00,
2013-05-27 11:00:00,85.8,68.3,29.72,SSE,155,3.0,20.0,56,0.00,,---,0.00,786.00,VWS V14.01,2013-05-27 16:00:00,
2013-05-27 11:05:00,85.9,67.9,29.72,SSW,192,11.0,18.0,55,0.00,,---,0.00,814.00,VWS V14.01,2013-05-27 16:05:00,
2013-05-27 11:10:00,86.0,68.0,29.72,SSE,154,4.0,18.0,55,0.00,,---,0.00,749.00,VWS V14.01,2013-05-27 16:10:00,
2013-05-27 11:15:00,86.1,67.5,29.72,SSE,157,9.0,18.0,54,0.00,,---,0.00,823.00,VWS V14.01,2013-05-27 16:15:00,
2013-05-27 11:20:00,85.7,67.7,29.72,South,170,3.0,20.0,55,0.00,,---,0.00,838.00,VWS V14.01,2013-05-27 16:20:00,
2013-05-27 11:25:00,86.1,68.1,29.71,SSW,212,10.0,22.0,55,0.00,,---,0.00,856.00,VWS V14.01,2013-05-27 16:25:00,
2013-05-27 11:30:00,86.4,67.8,29.71,SE,140,11.0,22.0,54,0.00,,---,0.00,902.00,VWS V14.01,2013-05-27 16:30:00,
2013-05-27 11:35:00,86.7,67.5,29.71,SSE,153,14.0,17.0,53,0.00,,---,0.00,935.00,VWS V14.01,2013-05-27 16:35:00,
2013-05-27 11:40:00,86.7,67.5,29.72,South,177,7.0,22.0,53,0.00,,---,0.00,932.00,VWS V14.01,2013-05-27 16:40:00,
2013-05-27 11:45:00,87.1,67.9,29.72,SSW,209,7.0,22.0,53,0.00,,---,0.00,942.00,VWS V14.01,2013-05-27 16:45:00,
2013-05-27 11:50:00,87.4,68.2,29.72,South,173,8.0,22.0,53,0.00,,---,0.00,744.00,VWS V14.01,2013-05-27 16:50:00,
2013-05-27 11:55:00,87.7,67.9,29.72,SSE,163,6.0,22.0,52,0.00,,---,0.00,582.00,VWS V14.01,2013-05-27 16:55:00,
2013-05-27 12:00:00,87.4,67.6,29.71,SSE,159,3.0,22.0,52,0.00,,---,0.00,626.00,VWS V14.01,2013-05-27 17:00:00,
2013-05-27 12:05:00,87.2,67.4,29.71,South,171,4.0,16.0,52,0.00,,---,0.00,700.00,VWS V14.01,2013-05-27 17:05:00,
2013-05-27 12:10:00,87.0,67.3,29.71,SSE,167,6.0,21.0,52,0.00,,---,0.00,348.00,VWS V14.01,2013-05-27 17:10:00,
2013-05-27 12:15:00,86.7,67.5,29.71,SE,133,15.0,21.0,53,0.00,,---,0.00,647.00,VWS V14.01,2013-05-27 17:15:00,
2013-05-27 12:20:00,87.4,67.6,29.70,SSE,162,8.0,21.0,52,0.00,,---,0.00,1013.00,VWS V14.01,2013-05-27 17:20:00,
2013-05-27 12:25:00,88.2,67.2,29.70,SSE,155,16.0,26.0,50,0.00,,---,0.00,972.00,VWS V14.01,2013-05-27 17:25:00,
2013-05-27 12:30:00,88.8,67.8,29.70,SSE,158,11.0,26.0,50,0.00,,---,0.00,1018.00,VWS V14.01,2013-05-27 17:30:00,
2013-05-27 12:35:00,89.7,68.0,29.69,SSE,162,10.0,18.0,49,0.00,,---,0.00,951.00,VWS V14.01,2013-05-27 17:35:00,
2013-05-27 12:40:00,88.7,66.5,29.69,SE,140,19.0,21.0,48,0.00,,---,0.00,257.00,VWS V14.01,2013-05-27 17:40:00,
2013-05-27 12:45:00,88.5,66.9,29.68,SSW,200,10.0,21.0,49,0.00,,---,0.00,1148.00,VWS V14.01,2013-05-27 17:45:00,
2013-05-27 12:50:00,88.7,65.9,29.69,South,191,8.0,21.0,47,0.00,,---,0.00,195.00,VWS V14.01,2013-05-27 17:50:00,
2013-05-27 12:55:00,88.5,66.9,29.69,SE,145,9.0,21.0,49,0.00,,---,0.00,281.00,VWS V14.01,2013-05-27 17:55:00,
2013-05-27 13:00:00,89.3,67.1,29.68,South,184,1.0,23.0,48,0.00,,---,0.00,995.00,VWS V14.01,2013-05-27 18:00:00,
2013-05-27 13:05:00,90.8,67.2,29.68,SE,133,14.0,19.0,46,0.00,,---,0.00,983.00,VWS V14.01,2013-05-27 18:05:00,
2013-05-27 13:10:00,91.3,66.3,29.68,SSE,161,19.0,23.0,44,0.00,,---,0.00,984.00,VWS V14.01,2013-05-27 18:10:00,
2013-05-27 13:15:00,91.5,67.2,29.68,South,184,16.0,28.0,45,0.00,,---,0.00,976.00,VWS V14.01,2013-05-27 18:15:00,
2013-05-27 13:20:00,91.5,66.5,29.67,South,171,11.0,28.0,44,0.00,,---,0.00,979.00,VWS V14.01,2013-05-27 18:20:00,
2013-05-27 13:25:00,91.9,66.9,29.67,SSE,156,7.0,28.0,44,0.00,,---,0.00,977.00,VWS V14.01,2013-05-27 18:25:00,
2013-05-27 13:30:00,92.6,66.9,29.67,South,178,6.0,28.0,43,0.00,,---,0.00,979.00,VWS V14.01,2013-05-27 18:30:00,
2013-05-27 13:35:00,92.8,66.4,29.66,SE,134,14.0,21.0,42,0.00,,---,0.00,979.00,VWS V14.01,2013-05-27 18:35:00,
2013-05-27 13:40:00,92.9,66.4,29.66,SSE,157,7.0,24.0,42,0.00,,---,0.00,979.00,VWS V14.01,2013-05-27 18:40:00,
2013-05-27 13:45:00,93.1,65.9,29.66,SE,136,11.0,24.0,41,0.00,,---,0.00,974.00,VWS V14.01,2013-05-27 18:45:00,
2013-05-27 13:50:00,93.5,66.3,29.65,South,189,18.0,24.0,41,0.00,,---,0.00,974.00,VWS V14.01,2013-05-27 18:50:00,
2013-05-27 13:55:00,93.5,65.6,29.65,SE,142,10.0,24.0,40,0.00,,---,0.00,969.00,VWS V14.01,2013-05-27 18:55:00,
2013-05-27 14:00:00,94.0,66.0,29.65,SSE,148,19.0,24.0,40,0.00,,---,0.00,967.00,VWS V14.01,2013-05-27 19:00:00,
2013-05-27 14:05:00,93.5,65.6,29.65,SE,144,11.0,25.0,40,0.00,,---,0.00,963.00,VWS V14.01,2013-05-27 19:05:00,
2013-05-27 14:10:00,93.9,66.6,29.65,SSE,153,7.0,25.0,41,0.00,,---,0.00,963.00,VWS V14.01,2013-05-27 19:10:00,
2013-05-27 14:15:00,94.7,65.9,29.65,South,186,14.0,25.0,39,0.00,,---,0.00,967.00,VWS V14.01,2013-05-27 19:15:00,
2013-05-27 14:20:00,94.3,66.3,29.64,SE,145,9.0,25.0,40,0.00,,---,0.00,965.00,VWS V14.01,2013-05-27 19:20:00,
2013-05-27 14:25:00,94.8,66.0,29.64,SSE,153,10.0,25.0,39,0.00,,---,0.00,962.00,VWS V14.01,2013-05-27 19:25:00,
2013-05-27 14:30:00,94.6,65.8,29.64,South,190,12.0,25.0,39,0.00,,---,0.00,954.00,VWS V14.01,2013-05-27 19:30:00,
2013-05-27 14:35:00,94.8,66.0,29.63,SSE,156,7.0,22.0,39,0.00,,---,0.00,949.00,VWS V14.01,2013-05-27 19:35:00,
2013-05-27 14:40:00,95.3,66.4,29.63,SE,134,12.0,22.0,39,0.00,,---,0.00,940.00,VWS V14.01,2013-05-27 19:40:00,
2013-05-27 14:45:00,95.1,65.5,29.63,South,171,14.0,31.0,38,0.00,,---,0.00,940.00,VWS V14.01,2013-05-27 19:45:00,
2013-05-27 14:50:00,95.1,65.5,29.63,South,180,14.0,31.0,38,0.00,,---,0.00,933.00,VWS V14.01,2013-05-27 19:50:00,
2013-05-27 14:55:00,95.2,66.4,29.63,SSE,155,12.0,31.0,39,0.00,,---,0.00,914.00,VWS V14.01,2013-05-27 19:55:00,
2013-05-27 15:00:00,95.1,65.5,29.63,SSE,160,6.0,31.0,38,0.00,,---,0.00,914.00,VWS V14.01,2013-05-27 20:00:00,
2013-05-27 15:05:00,95.5,66.6,29.62,SE,137,12.0,26.0,39,0.00,,---,0.00,907.00,VWS V14.01,2013-05-27 20:05:00,
2013-05-27 15:10:00,95.5,65.9,29.62,SE,145,10.0,26.0,38,0.00,,---,0.00,896.00,VWS V14.01,2013-05-27 20:10:00,
2013-05-27 15:15:00,96.0,65.6,29.62,SE,140,13.0,26.0,37,0.00,,---,0.00,891.00,VWS V14.01,2013-05-27 20:15:00,
2013-05-27 15:20:00,96.0,65.6,29.61,SSE,153,13.0,26.0,37,0.00,,---,0.00,886.00,VWS V14.01,2013-05-27 20:20:00,
2013-05-27 15:25:00,95.6,65.2,29.61,SSE,150,19.0,26.0,37,0.00,,---,0.00,877.00,VWS V14.01,2013-05-27 20:25:00,
2013-05-27 15:30:00,95.7,66.1,29.61,SSE,163,22.0,30.0,38,0.00,,---,0.00,875.00,VWS V14.01,2013-05-27 20:30:00,
2013-05-27 15:35:00,95.8,66.1,29.61,SE,142,7.0,20.0,38,0.00,,---,0.00,860.00,VWS V14.01,2013-05-27 20:35:00,
2013-05-27 15:40:00,96.0,65.6,29.61,SE,131,14.0,26.0,37,0.00,,---,0.00,846.00,VWS V14.01,2013-05-27 20:40:00,
2013-05-27 15:45:00,95.9,65.5,29.60,SE,144,14.0,26.0,37,0.00,,---,0.00,835.00,VWS V14.01,2013-05-27 20:45:00,
2013-05-27 15:50:00,95.8,65.4,29.60,South,171,22.0,26.0,37,0.00,,---,0.00,830.00,VWS V14.01,2013-05-27 20:50:00,
2013-05-27 15:55:00,95.9,65.5,29.60,SSE,158,8.0,29.0,37,0.00,,---,0.00,833.00,VWS V14.01,2013-05-27 20:55:00,
2013-05-27 16:00:00,96.1,65.6,29.60,South,175,10.0,29.0,37,0.00,,---,0.00,826.00,VWS V14.01,2013-05-27 21:00:00,
2013-05-27 16:05:00,95.9,65.5,29.59,SE,140,22.0,30.0,37,0.00,,---,0.00,817.00,VWS V14.01,2013-05-27 21:05:00,
2013-05-27 16:10:00,95.9,65.5,29.59,SSE,155,12.0,31.0,37,0.00,,---,0.00,758.00,VWS V14.01,2013-05-27 21:10:00,
2013-05-27 16:15:00,95.6,66.0,29.59,SSE,158,8.0,31.0,38,0.00,,---,0.00,396.00,VWS V14.01,2013-05-27 21:15:00,
2013-05-27 16:20:00,95.4,65.0,29.59,SE,144,7.0,31.0,37,0.00,,---,0.00,459.00,VWS V14.01,2013-05-27 21:20:00,
2013-05-27 16:25:00,95.2,65.6,29.59,South,181,12.0,31.0,38,0.00,,---,0.00,773.00,VWS V14.01,2013-05-27 21:25:00,
2013-05-27 16:30:00,96.0,65.6,29.58,SSE,155,12.0,31.0,37,0.00,,---,0.00,548.00,VWS V14.01,2013-05-27 21:30:00,
2013-05-27 16:35:00,96.1,65.6,29.58,SSE,165,23.0,26.0,37,0.00,,---,0.00,765.00,VWS V14.01,2013-05-27 21:35:00,
2013-05-27 16:40:00,95.9,65.5,29.58,SSE,161,11.0,26.0,37,0.00,,---,0.00,733.00,VWS V14.01,2013-05-27 21:40:00,
2013-05-27 16:45:00,96.2,65.7,29.58,SE,140,8.0,26.0,37,0.00,,---,0.00,710.00,VWS V14.01,2013-05-27 21:45:00,
2013-05-27 16:50:00,96.4,65.1,29.58,SE,125,22.0,26.0,36,0.00,,---,0.00,694.00,VWS V14.01,2013-05-27 21:50:00,
2013-05-27 16:55:00,96.3,65.0,29.57,SSE,150,11.0,27.0,36,0.00,,---,0.00,564.00,VWS V14.01,2013-05-27 21:55:00,
2013-05-27 17:00:00,95.9,64.7,29.57,SE,145,19.0,27.0,36,0.00,,---,0.00,635.00,VWS V14.01,2013-05-27 22:00:00,
2013-05-27 17:05:00,95.9,65.5,29.57,SE,135,11.0,28.0,37,0.00,,---,0.00,612.00,VWS V14.01,2013-05-27 22:05:00,
2013-05-27 17:10:00,95.9,65.5,29.56,SE,144,10.0,28.0,37,0.00,,---,0.00,682.00,VWS V14.01,2013-05-27 22:10:00,
2013-05-27 17:15:00,95.8,65.4,29.56,SSE,157,11.0,28.0,37,0.00,,---,0.00,206.00,VWS V14.01,2013-05-27 22:15:00,
2013-05-27 17:20:00,95.0,64.7,29.57,SSE,167,16.0,28.0,37,0.00,,---,0.00,183.00,VWS V14.01,2013-05-27 22:20:00,
2013-05-27 17:25:00,94.3,64.8,29.57,South,181,11.0,28.0,38,0.00,,---,0.00,260.00,VWS V14.01,2013-05-27 22:25:00,
2013-05-27 17:30:00,94.3,64.8,29.56,SE,144,14.0,28.0,38,0.00,,---,0.00,297.00,VWS V14.01,2013-05-27 22:30:00,
2013-05-27 17:35:00,94.4,64.9,29.56,SSE,153,7.0,20.0,38,0.00,,---,0.00,250.00,VWS V14.01,2013-05-27 22:35:00,
2013-05-27 17:40:00,93.9,64.5,29.55,South,179,15.0,26.0,38,0.00,,---,0.00,171.00,VWS V14.01,2013-05-27 22:40:00,
2013-05-27 17:45:00,93.3,64.7,29.54,SE,143,7.0,26.0,39,0.00,,---,0.00,149.00,VWS V14.01,2013-05-27 22:45:00,
2013-05-27 17:50:00,92.9,65.0,29.54,SE,146,14.0,26.0,40,0.00,,---,0.00,128.00,VWS V14.01,2013-05-27 22:50:00,
2013-05-27 17:55:00,92.5,65.4,29.54,SE,137,17.0,26.0,41,0.00,,---,0.00,77.00,VWS V14.01,2013-05-27 22:55:00,
2013-05-27 18:00:00,92.1,65.0,29.55,SSE,164,16.0,26.0,41,0.00,,---,0.00,46.00,VWS V14.01,2013-05-27 23:00:00,
2013-05-27 18:05:00,91.7,65.4,29.54,SSE,152,11.0,32.0,42,0.00,,---,0.00,28.00,VWS V14.01,2013-05-27 23:05:00,
2013-05-27 18:10:00,91.3,65.7,29.55,SE,130,29.0,32.0,43,0.00,,---,0.00,18.00,VWS V14.01,2013-05-27 23:10:00,
2013-05-27 18:15:00,90.9,66.0,29.55,SSE,150,9.0,32.0,44,0.00,,---,0.00,12.00,VWS V14.01,2013-05-27 23:15:00,
2013-05-27 18:20:00,90.6,65.7,29.56,SSE,157,16.0,32.0,44,0.00,,---,0.00,9.00,VWS V14.01,2013-05-27 23:20:00,
2013-05-27 18:25:00,90.3,65.4,29.56,South,174,9.0,32.0,44,0.00,,---,0.00,7.00,VWS V14.01,2013-05-27 23:25:00,
2013-05-27 18:30:00,89.9,65.7,29.56,SE,141,17.0,32.0,45,0.00,,---,0.00,5.00,VWS V14.01,2013-05-27 23:30:00,
2013-05-27 18:35:00,89.5,66.0,29.58,SSE,153,11.0,25.0,46,0.00,,---,0.00,5.00,VWS V14.01,2013-05-27 23:35:00,
2013-05-27 18:40:00,89.3,65.8,29.59,SSE,155,15.0,25.0,46,0.00,,---,0.00,0.00,VWS V14.01,2013-05-27 23:40:00,
2013-05-27 18:45:00,89.1,65.6,29.59,SSE,168,16.0,25.0,46,0.00,,---,0.00,0.00,VWS V14.01,2013-05-27 23:45:00,
2013-05-27 18:50:00,89.0,66.2,29.59,SSE,155,11.0,25.0,47,0.00,,---,0.00,0.00,VWS V14.01,2013-05-27 23:50:00,
2013-05-27 18:55:00,88.8,66.0,29.59,SSE,165,17.0,25.0,47,0.00,,---,0.00,0.00,VWS V14.01,2013-05-27 23:55:00,
2013-05-27 18:59:00,88.7,65.9,29.61,SE,146,18.0,25.0,47,0.00,,---,0.00,0.00,VWS V14.01,2013-05-27 23:59:00,
2013-05-27 19:04:00,88.6,66.4,29.62,SSE,155,6.0,20.0,48,0.00,,---,0.00,0.00,VWS V14.01,2013-05-28 00:04:00,
2013-05-27 19:09:00,88.4,66.2,29.62,South,171,10.0,20.0,48,0.00,,---,0.00,7.00,VWS V14.01,2013-05-28 00:09:00,
2013-05-27 19:14:00,88.3,66.1,29.63,SSE,157,6.0,20.0,48,0.00,,---,0.00,11.00,VWS V14.01,2013-05-28 00:14:00,
2013-05-27 19:19:00,88.2,66.1,29.61,SE,142,0.0,20.0,48,0.00,,---,0.00,18.00,VWS V14.01,2013-05-28 00:19:00,
2013-05-27 19:24:00,88.0,66.5,29.59,SE,132,8.0,20.0,49,0.00,,---,0.00,33.00,VWS V14.01,2013-05-28 00:24:00,
2013-05-27 19:29:00,87.8,66.3,29.58,SE,145,22.0,28.0,49,0.00,,---,0.00,65.00,VWS V14.01,2013-05-28 00:29:00,
2013-05-27 19:34:00,87.8,66.3,29.55,SE,133,19.0,20.0,49,0.00,,---,0.00,120.00,VWS V14.01,2013-05-28 00:34:00,
2013-05-27 19:39:00,87.9,66.4,29.56,SE,135,6.0,28.0,49,0.00,,---,0.00,190.00,VWS V14.01,2013-05-28 00:39:00,
2013-05-27 19:44:00,88.1,66.0,29.57,SE,134,11.0,30.0,48,0.00,,---,0.00,200.00,VWS V14.01,2013-05-28 00:44:00,
2013-05-27 19:49:00,88.3,66.1,29.57,SE,146,16.0,30.0,48,0.00,,---,0.00,179.00,VWS V14.01,2013-05-28 00:49:00,
2013-05-27 19:54:00,88.2,66.1,29.57,SSE,147,21.0,30.0,48,0.00,,---,0.00,148.00,VWS V14.01,2013-05-28 00:54:00,
2013-05-27 19:59:00,88.0,66.5,29.58,SSE,155,18.0,30.0,49,0.00,,---,0.00,118.00,VWS V14.01,2013-05-28 00:59:00,
2013-05-27 20:04:00,87.8,66.3,29.58,SE,140,9.0,25.0,49,0.00,,---,0.00,95.00,VWS V14.01,2013-05-28 01:04:00,
2013-05-27 20:09:00,87.5,66.0,29.58,SSE,156,18.0,27.0,49,0.00,,---,0.00,65.00,VWS V14.01,2013-05-28 01:09:00,
2013-05-27 20:14:00,86.9,66.0,29.57,SE,130,24.0,27.0,50,0.00,,---,0.00,47.00,VWS V14.01,2013-05-28 01:14:00,
2013-05-27 20:19:00,86.5,65.7,29.57,SE,126,13.0,27.0,50,0.00,,---,0.00,33.00,VWS V14.01,2013-05-28 01:19:00,
2013-05-27 20:24:00,86.3,65.5,29.58,SE,138,19.0,27.0,50,0.00,,---,0.00,25.00,VWS V14.01,2013-05-28 01:24:00,
2013-05-27 20:29:00,86.0,65.8,29.60,SSE,163,17.0,27.0,51,0.00,,---,0.00,19.00,VWS V14.01,2013-05-28 01:29:00,
2013-05-27 20:34:00,85.9,65.7,29.60,SSE,158,20.0,23.0,51,0.00,,---,0.00,12.00,VWS V14.01,2013-05-28 01:34:00,
2013-05-27 20:39:00,85.9,65.7,29.60,SSE,157,15.0,24.0,51,0.00,,---,0.00,5.00,VWS V14.01,2013-05-28 01:39:00,
2013-05-27 20:44:00,85.6,66.5,29.59,SE,142,10.0,24.0,53,0.00,,---,0.00,0.00,VWS V14.01,2013-05-28 01:44:00,
2013-05-27 20:49:00,85.2,66.2,29.58,SE,144,10.0,24.0,53,0.00,,---,0.00,0.00,VWS V14.01,2013-05-28 01:49:00,
2013-05-27 20:54:00,85.2,66.7,29.58,SE,136,14.0,26.0,54,0.00,,---,0.00,0.00,VWS V14.01,2013-05-28 01:54:00,
2013-05-27 20:59:00,85.2,66.7,29.60,SSE,147,10.0,26.0,54,0.00,,---,0.00,0.00,VWS V14.01,2013-05-28 01:59:00,
2013-05-27 21:04:00,84.9,66.9,29.61,SE,146,7.0,19.0,55,0.00,,---,0.00,0.00,VWS V14.01,2013-05-28 02:04:00,
2013-05-27 21:09:00,84.5,67.1,29.60,SE,137,8.0,19.0,56,0.00,,---,0.00,0.00,VWS V14.01,2013-05-28 02:09:00,
2013-05-27 21:14:00,84.2,66.8,29.60,East,90,6.0,19.0,56,0.00,,---,0.00,0.00,VWS V14.01,2013-05-28 02:14:00,
2013-05-27 21:19:00,84.1,66.7,29.60,SSE,168,19.0,20.0,56,0.00,,---,0.00,0.00,VWS V14.01,2013-05-28 02:19:00,
2013-05-27 21:24:00,83.9,66.5,29.60,SE,146,3.0,21.0,56,0.00,,---,0.00,0.00,VWS V14.01,2013-05-28 02:24:00,
2013-05-27 21:29:00,83.7,66.3,29.59,SSE,152,12.0,21.0,56,0.00,,---,0.00,0.00,VWS V14.01,2013-05-28 02:29:00,
2013-05-27 21:34:00,83.6,66.8,29.59,SSE,149,16.0,24.0,57,0.00,,---,0.00,0.00,VWS V14.01,2013-05-28 02:34:00,
2013-05-27 21:39:00,83.3,67.0,29.58,SE,138,11.0,25.0,58,0.00,,---,0.00,0.00,VWS V14.01,2013-05-28 02:39:00,
2013-05-27 21:44:00,82.9,67.1,29.58,SE,144,7.0,25.0,59,0.00,,---,0.00,0.00,VWS V14.01,2013-05-28 02:44:00,
2013-05-27 21:49:00,82.7,67.4,29.59,South,176,8.0,25.0,60,0.00,,---,0.00,0.00,VWS V14.01,2013-05-28 02:49:00,
2013-05-27 21:54:00,82.5,67.2,29.58,SSE,161,16.0,25.0,60,0.00,,---,0.00,0.00,VWS V14.01,2013-05-28 02:54:00,
2013-05-27 21:59:00,82.3,67.5,29.59,SE,137,12.0,25.0,61,0.00,,---,0.00,0.00,VWS V14.01,2013-05-28 02:59:00,
2013-05-27 22:04:00,82.1,67.3,29.60,SSE,151,20.0,22.0,61,0.00,,---,0.00,0.00,VWS V14.01,2013-05-28 03:04:00,
2013-05-27 22:09:00,81.9,67.6,29.59,SSE,150,9.0,23.0,62,0.00,,---,0.00,0.00,VWS V14.01,2013-05-28 03:09:00,
2013-05-27 22:14:00,81.8,67.5,29.59,SE,142,13.0,26.0,62,0.00,,---,0.00,0.00,VWS V14.01,2013-05-28 03:14:00,
2013-05-27 22:19:00,81.8,67.5,29.58,SSE,158,13.0,27.0,62,0.00,,---,0.00,0.00,VWS V14.01,2013-05-28 03:19:00,
2013-05-27 22:24:00,81.7,67.9,29.57,SSE,153,17.0,29.0,63,0.00,,---,0.00,0.00,VWS V14.01,2013-05-28 03:24:00,
2013-05-27 22:29:00,81.5,67.7,29.57,SSE,150,21.0,29.0,63,0.00,,---,0.00,0.00,VWS V14.01,2013-05-28 03:29:00,
2013-05-27 22:34:00,81.3,67.5,29.56,SSE,168,16.0,30.0,63,0.00,,---,0.00,0.00,VWS V14.01,2013-05-28 03:34:00,
2013-05-27 22:39:00,81.5,67.7,29.58,SSE,163,13.0,30.0,63,0.00,,---,0.00,0.00,VWS V14.01,2013-05-28 03:39:00,
2013-05-27 22:44:00,81.5,67.7,29.58,SE,139,21.0,30.0,63,0.00,,---,0.00,0.00,VWS V14.01,2013-05-28 03:44:00,
2013-05-27 22:49:00,81.4,67.6,29.59,South,169,11.0,30.0,63,0.00,,---,0.00,0.00,VWS V14.01,2013-05-28 03:49:00,
2013-05-27 22:54:00,81.4,67.6,29.60,SSE,151,13.0,30.0,63,0.00,,---,0.00,0.00,VWS V14.01,2013-05-28 03:54:00,
2013-05-27 22:59:00,81.5,67.7,29.59,SE,140,20.0,30.0,63,0.00,,---,0.00,0.00,VWS V14.01,2013-05-28 03:59:00,
2013-05-27 23:01:00,81.5,67.2,29.59,SSE,161,8.0,30.0,62,0.00,,---,0.00,0.00,VWS V14.01,2013-05-28 04:01:00,
2013-05-27 23:06:00,81.5,67.2,29.60,South,174,5.0,27.0,62,0.00,,---,0.00,0.00,VWS V14.01,2013-05-28 04:06:00,
2013-05-27 23:11:00,81.4,67.1,29.62,SSE,155,9.0,27.0,62,0.00,,---,0.00,0.00,VWS V14.01,2013-05-28 04:11:00,
2013-05-27 23:16:00,81.3,67.5,29.62,SSE,155,12.0,27.0,63,0.00,,---,0.00,0.00,VWS V14.01,2013-05-28 04:16:00,
2013-05-27 23:21:00,81.1,67.3,29.62,SSE,155,15.0,27.0,63,0.00,,---,0.00,0.00,VWS V14.01,2013-05-28 04:21:00,
2013-05-27 23:26:00,81.0,67.2,29.62,SSE,161,10.0,27.0,63,0.00,,---,0.00,0.00,VWS V14.01,2013-05-28 04:26:00,
2013-05-27 23:31:00,80.8,67.0,29.62,South,190,13.0,17.0,63,0.00,,---,0.00,0.00,VWS V14.01,2013-05-28 04:31:00,
2013-05-27 23:36:00,80.7,66.9,29.62,SSE,154,12.0,20.0,63,0.00,,---,0.00,0.00,VWS V14.01,2013-05-28 04:36:00,
2013-05-27 23:41:00,80.6,66.8,29.62,South,183,9.0,20.0,63,0.00,,---,0.00,0.00,VWS V14.01,2013-05-28 04:41:00,
2013-05-27 23:46:00,80.6,66.8,29.63,South,170,10.0,20.0,63,0.00,,---,0.00,0.00,VWS V14.01,2013-05-28 04:46:00,
2013-05-27 23:51:00,80.6,66.8,29.63,SSE,148,8.0,20.0,63,0.00,,---,0.00,0.00,VWS V14.01,2013-05-28 04:51:00,
2013-05-27 23:56:00,80.5,66.8,29.62,South,174,8.0,22.0,63,0.00,,---,0.00,0.00,VWS V14.01,2013-05-28 04:56:00,